Location: Newark
(41.9364°N, 2.8061°E)
Time: 01:06:54
(UTC+00:00)

A-11 Canister half - Pass Details

Date: 20 February 2020
Orbit: 1517 x 1683 km, 47.2° (Epoch: 27 March)

Event Time Altitude Azimuth Distance (km) Brightness Sun altitude
Rises 20:40:46 0° 290° (WNW) 4,834 12.6 -36.3°
Reaches altitude 10° 20:43:57 10° 292° (WNW) 3,825 11.8 -36.8°
Enters shadow 20:53:05 75° 343° (NNW) 1,613 8.9 -38.4°
